User: anonymous   Login
Location: Vancouver
(49.2500°N, 123.1330°W)
Time: 03:19:59
(UTC-07:00)
Language:

Cosmos 1864 Rocket - Orbit

View from above orbital plane
View from above orbital plane
View from above satellite
View from above satellite

Ground track
Ground track

The orbit data is extracted from the following two-line orbital elements,

1 18161U 87057B   17232.55497417 -.00000044 +00000-0 -60179-4 0  9998
2 18161 082.9341 024.0368 0032211 132.0285 295.8648 13.76979225492827
Epoch (UTC): 20 August 2017 13:19:09
Eccentricity: 0.0032211
inclination: 82.9341°
perigee height: 951 km
apogee height: 998 km
right ascension of ascending node: 24.0368°
argument of perigee: 132.0285°
revolutions per day: 13.76979225
mean anomaly at epoch: 295.8648°
orbit number at epoch: 49282

The dashed part of the orbit path shows where the satellite is in the earth's shadow,  

DLR